User: anonymous   Login
Location: Unspecified
(0.0000°N, 0.0000°E)
Time: 07:31:12
(UTC+00:00)
Language:

ATEX - Orbit

View from above orbital plane
View from above orbital plane
View from above satellite
View from above satellite

Ground track
Ground track

The orbit data is extracted from the following two-line orbital elements,

1 25489U 98055A   18347.89834290 +.00000111 +00000-0 +23848-4 0  9993
2 25489 084.9835 169.9930 0011212 067.5168 292.7220 14.48679367066094
Epoch (UTC): 13 December 2018 21:33:36
Eccentricity: 0.0011212
inclination: 84.9835°
perigee height: 722 km
apogee height: 738 km
right ascension of ascending node: 169.9930°
argument of perigee: 67.5168°
revolutions per day: 14.48679367
mean anomaly at epoch: 292.7220°
orbit number at epoch: 6609

The dashed part of the orbit path shows where the satellite is in the earth's shadow,  

DLR